EW2353 Weather Reports


Display with metric or nautical units.
time (UTC)temp
F
wind
direction
speed
MPH
gust
MPH
rain 1hr
in
rain 24hr
in
rain mn
in
humidity
%
barometer
mb
20260508121825 51 220 2.0 5.0 0.00 0.00 0.00 75 1014.7
20260508121322 50 209 1.0 4.0 0.00 0.00 0.00 77 1014.7
20260508120814 49 213 1.0 3.0 0.00 0.00 0.00 79 1014.7
20260508120327 49 229 1.0 3.0 0.00 0.00 0.00 80 1014.7
20260508115840 49 209 0.0 2.0 0.00 0.00 0.00 79 1014.8
20260508115312 48 213 0.0 2.0 0.00 0.00 0.00 80 1014.7
20260508114844 48 216 0.0 0.0 0.00 0.00 0.00 81 1014.7
20260508114316 48 214 0.0 0.0 0.00 0.00 0.00 81 1014.7
20260508113849 47 226 0.0 0.0 0.00 0.00 0.00 81 1014.6
20260508113321 46 226 0.0 0.0 0.00 0.00 0.00 82 1014.6
20260508112814 46 226 0.0 0.0 0.00 0.00 0.00 81 1014.5
20260508112330 46 226 0.0 0.0 0.00 0.00 0.00 80 1014.5
20260508111823 47 226 0.0 0.0 0.00 0.00 0.00 79 1014.4
20260508111316 47 226 0.0 0.0 0.00 0.00 0.00 79 1014.4
20260508110829 47 226 0.0 0.0 0.00 0.00 0.00 79 1014.4
20260508110322 47 226 0.0 0.0 0.00 0.00 0.00 78 1014.4
20260508105835 48 226 0.0 0.0 0.00 0.00 0.00 77 1014.4
20260508105327 48 226 0.0 0.0 0.00 0.00 0.00 76 1014.3
20260508104819 48 226 0.0 0.0 0.00 0.00 0.00 75 1014.3
20260508104333 48 225 0.0 0.0 0.00 0.00 0.00 74 1014.2
20260508103828 49 222 0.0 1.0 0.00 0.00 0.00 73 1014.2
20260508103341 49 210 0.0 2.0 0.00 0.00 0.00 73 1014.3
20260508102812 49 243 0.0 3.0 0.00 0.00 0.00 72 1014.4
20260508102326 48 235 1.0 3.0 0.00 0.00 0.00 73 1014.3
20260508101818 48 213 0.0 2.0 0.00 0.00 0.00 76 1014.3
20260508101312 47 229 0.0 0.0 0.00 0.00 0.00 77 1014.3
20260508100824 47 229 0.0 0.0 0.00 0.00 0.00 77 1014.3
20260508100317 47 229 0.0 0.0 0.00 0.00 0.00 77 1014.3
20260508095814 47 229 0.0 0.0 0.00 0.00 0.00 76 1014.3
20260508095327 47 213 0.0 0.0 0.00 0.00 0.00 76 1014.2
20260508094819 47 224 0.0 0.0 0.00 0.00 0.00 76 1014.3
20260508094312 47 224 0.0 1.0 0.00 0.00 0.00 76 1014.2
20260508093825 47 224 0.0 1.0 0.00 0.00 0.00 75 1014.3
20260508093317 47 207 0.0 1.0 0.00 0.00 0.00 76 1014.3
20260508092830 46 192 0.0 1.0 0.00 0.00 0.00 77 1014.3
20260508092323 46 205 0.0 0.0 0.00 0.00 0.00 78 1014.3
20260508091816 45 134 0.0 0.0 0.00 0.00 0.00 79 1014.3
20260508091330 45 134 0.0 0.0 0.00 0.00 0.00 79 1014.3
20260508090823 45 134 0.0 0.0 0.00 0.00 0.00 80 1014.4
20260508090336 44 134 0.0 0.0 0.00 0.00 0.00 80 1014.4
20260508085827 44 134 0.0 0.0 0.00 0.00 0.00 81 1014.3
20260508085319 44 134 0.0 0.0 0.00 0.00 0.00 81 1014.3
20260508084811 44 134 0.0 0.0 0.00 0.00 0.00 82 1014.4
20260508084325 44 134 0.0 0.0 0.00 0.00 0.00 82 1014.3
20260508083814 44 134 0.0 0.0 0.00 0.00 0.00 81 1014.4
20260508083330 44 134 0.0 0.0 0.00 0.00 0.00 79 1014.2
20260508082823 45 134 0.0 0.0 0.00 0.00 0.00 79 1014.2
20260508082315 45 134 0.0 0.0 0.00 0.00 0.00 77 1014.1
20260508081848 45 134 0.0 0.0 0.00 0.00 0.00 77 1014.2
20260508081319 45 134 0.0 1.0 0.00 0.00 0.00 77 1014.2
20260508080812 45 135 0.0 1.0 0.00 0.00 0.00 76 1014.2
20260508080325 45 193 0.0 0.0 0.00 0.00 0.00 76 1014.2
20260508075818 45 193 0.0 1.0 0.00 0.00 0.00 76 1014.2
20260508075315 44 233 0.0 0.0 0.00 0.00 0.00 76 1014.3
20260508074828 45 233 0.0 2.0 0.00 0.00 0.00 76 1014.3
20260508074321 44 233 0.0 2.0 0.00 0.00 0.00 76 1014.2
20260508073814 45 202 0.0 0.0 0.00 0.00 0.00 76 1014.2
20260508073327 45 202 0.0 0.0 0.00 0.00 0.00 75 1014.2
20260508072816 45 202 0.0 0.0 0.00 0.00 0.00 74 1014.1
20260508072345 46 202 0.0 0.0 0.00 0.00 0.00 74 1014.2
20260508071816 46 202 0.0 0.0 0.00 0.00 0.00 73 1014.2
20260508071329 46 202 0.0 0.0 0.00 0.00 0.00 73 1014.2
20260508070826 46 202 0.0 0.0 0.00 0.00 0.00 72 1014.3
20260508070319 46 223 0.0 1.0 0.00 0.00 0.00 72 1014.4
20260508065811 47 223 0.0 1.0 0.00 0.00 0.00 72 1014.4
20260508065324 47 223 0.0 1.0 0.00 0.00 0.00 72 1014.4
20260508064817 47 223 0.0 1.0 0.00 0.00 0.00 72 1014.5
20260508064330 47 223 0.0 2.0 0.00 0.00 0.00 72 1014.6
20260508063823 47 238 0.0 3.0 0.00 0.00 0.00 72 1014.6
20260508063316 47 243 1.0 3.0 0.00 0.00 0.00 72 1014.7
20260508062813 47 241 0.0 3.0 0.00 0.00 0.00 73 1014.7
20260508062325 47 217 1.0 3.0 0.00 0.00 0.00 72 1014.7
20260508061818 47 230 0.0 3.0 0.00 0.00 0.00 73 1014.7
20260508061311 47 220 0.0 3.0 0.00 0.00 0.00 73 1014.9
20260508060824 47 226 0.0 2.0 0.00 0.00 0.00 73 1014.9
20260508060317 47 236 0.0 1.0 0.00 0.00 0.00 73 1014.8
20260508055829 47 217 0.0 2.0 0.00 0.00 0.00 73 1014.8
20260508055322 47 215 0.0 3.0 0.00 0.00 0.00 73 1014.8
20260508054819 46 217 1.0 3.0 0.00 0.00 0.00 74 1014.9
20260508054312 46 243 0.0 2.0 0.00 0.00 0.00 75 1014.9
20260508053825 46 221 0.0 3.0 0.00 0.00 0.00 75 1015.0
20260508053317 45 226 1.0 3.0 0.00 0.00 0.00 76 1014.9
20260508052830 45 231 0.0 1.0 0.00 0.00 0.00 75 1014.9
20260508052322 46 231 0.0 1.0 0.00 0.00 0.00 73 1014.9
20260508051815 46 236 0.0 0.0 0.00 0.00 0.00 72 1014.9
20260508051312 46 236 0.0 1.0 0.00 0.00 0.00 72 1014.9
20260508050845 47 236 0.0 1.0 0.00 0.00 0.00 71 1014.9
20260508050316 47 236 0.0 1.0 0.00 0.00 0.00 71 1014.9
20260508045826 47 226 0.0 2.0 0.00 0.00 0.00 71 1014.9
20260508045319 47 247 0.0 3.0 0.00 0.00 0.00 72 1014.9
20260508044812 47 235 1.0 3.0 0.00 0.00 0.00 72 1015.0
20260508044345 48 250 1.0 3.0 0.00 0.00 0.00 72 1014.9
20260508043816 48 255 0.0 6.0 0.00 0.00 0.00 68 1014.8
20260508043329 48 217 2.0 6.0 0.00 0.00 0.00 68 1014.8
20260508042822 48 172 2.0 5.0 0.00 0.00 0.00 68 1014.7
20260508042319 48 195 3.0 5.0 0.00 0.00 0.00 68 1014.8
20260508041331 47 211 2.0 3.0 0.00 0.00 0.00 69 1014.9
20260508040844 47 217 0.0 3.0 0.00 0.00 0.00 69 1014.8
20260508040315 47 240 0.0 3.0 0.00 0.00 0.00 70 1014.8
20260508035827 47 234 0.0 3.0 0.00 0.00 0.00 70 1014.7
20260508035340 47 256 0.0 0.0 0.00 0.00 0.00 70 1014.8
20260508034812 47 223 0.0 1.0 0.00 0.00 0.00 71 1014.8
20260508034325 47 238 0.0 2.0 0.00 0.00 0.00 72 1014.8
20260508033822 46 252 0.0 1.0 0.00 0.00 0.00 73 1014.8
20260508033314 46 236 0.0 0.0 0.00 0.00 0.00 74 1014.7
20260508032827 47 236 0.0 0.0 0.00 0.00 0.00 75 1014.7
20260508032320 47 229 0.0 0.0 0.00 0.00 0.00 72 1014.6
20260508031813 47 224 0.0 0.0 0.00 0.00 0.00 72 1014.6
20260508031326 47 224 0.0 1.0 0.00 0.00 0.00 72 1014.7
20260508030818 46 225 0.0 1.0 0.00 0.00 0.00 73 1014.7
20260508030316 46 239 0.0 1.0 0.00 0.00 0.00 75 1014.8
20260508025828 46 255 0.0 1.0 0.00 0.00 0.00 77 1014.8
20260508025321 46 235 0.0 1.0 0.00 0.00 0.00 77 1014.7
20260508024834 45 235 0.0 0.0 0.00 0.00 0.00 79 1014.7
20260508024326 44 226 0.0 0.0 0.00 0.00 0.00 78 1014.6
20260508023819 44 226 0.0 0.0 0.00 0.00 0.00 76 1014.6
20260508023311 45 226 0.0 0.0 0.00 0.00 0.00 77 1014.6
20260508022825 45 226 0.0 0.0 0.00 0.00 0.00 77 1014.6
20260508022318 46 226 0.0 0.0 0.00 0.00 0.00 78 1014.6
20260508021814 46 226 0.0 0.0 0.00 0.00 0.00 78 1014.6
20260508021327 47 226 0.0 0.0 0.00 0.00 0.00 78 1014.7
20260508020820 47 226 0.0 1.0 0.00 0.00 0.00 80 1014.7
20260508020313 46 226 0.0 1.0 0.00 0.00 0.00 80 1014.6
20260508015826 46 226 0.0 1.0 0.00 0.00 0.00 77 1014.5
20260508015339 46 250 0.0 0.0 0.00 0.00 0.00 80 1014.5
20260508014851 46 250 0.0 0.0 0.00 0.00 0.00 79 1014.6
20260508014322 46 250 0.0 0.0 0.00 0.00 0.00 75 1014.4
20260508013815 46 250 0.0 0.0 0.00 0.00 0.00 75 1014.4
20260508013312 46 250 0.0 0.0 0.00 0.00 0.00 76 1014.4
20260508012825 46 250 0.0 0.0 0.00 0.00 0.00 75 1014.4
20260508012338 47 250 0.0 0.0 0.00 0.00 0.00 74 1014.5
20260508011830 47 250 0.0 0.0 0.00 0.00 0.00 74 1014.5
20260508011322 48 250 0.0 0.0 0.00 0.00 0.00 74 1014.5
20260508010815 48 250 0.0 0.0 0.00 0.00 0.00 73 1014.5
20260508010328 49 250 0.0 0.0 0.00 0.00 0.00 72 1014.4
20260508005821 50 250 0.0 0.0 0.00 0.00 0.00 71 1014.4
20260508005317 50 250 0.0 0.0 0.00 0.00 0.00 68 1014.4
20260508004828 50 250 0.0 0.0 0.00 0.00 0.00 67 1014.4
20260508004320 51 250 0.0 0.0 0.00 0.00 0.00 64 1014.4
20260508003814 52 250 0.0 0.0 0.00 0.00 0.00 62 1014.4
20260508003326 53 250 0.0 0.0 0.00 0.00 0.00 59 1014.4
20260508002819 54 250 0.0 1.0 0.00 0.00 0.00 58 1014.4
20260508002312 54 250 0.0 2.0 0.00 0.00 0.00 57 1014.4
20260508001825 55 248 0.0 2.0 0.00 0.00 0.00 55 1014.3
20260508001322 56 238 0.0 2.0 0.00 0.00 0.00 54 1014.2
20260508000834 56 236 0.0 5.0 0.00 0.00 0.00 52 1014.2
20260508000327 57 222 3.0 5.0 0.00 0.00 0.00 50 1014.2
20260507235819 57 217 1.0 6.0 0.00 0.00 0.00 49 1014.1
20260507235312 57 224 3.0 6.0 0.00 0.00 0.00 47 1014.2
20260507234825 58 246 3.0 6.0 0.00 0.00 0.00 47 1014.2
20260507234338 58 244 4.0 6.0 0.00 0.00 0.00 45 1014.2
20260507233830 58 245 4.0 6.0 0.00 0.00 0.00 46 1014.1
20260507233323 58 247 4.0 8.0 0.00 0.00 0.00 45 1014.1
20260507232819 58 276 5.0 8.0 0.00 0.00 0.00 45 1014.1
20260507232332 59 245 5.0 9.0 0.00 0.00 0.00 45 1014.1
20260507231824 59 264 6.0 9.0 0.00 0.00 0.00 44 1014.2
20260507231317 59 269 3.0 8.0 0.00 0.00 0.00 46 1014.2
20260507230830 59 245 4.0 8.0 0.00 0.00 0.00 43 1014.1
20260507230343 60 272 4.0 8.0 0.00 0.00 0.00 41 1014.1
20260507225815 60 248 5.0 8.0 0.00 0.00 0.00 43 1014.2
20260507225328 60 271 5.0 8.0 0.00 0.00 0.00 40 1014.2
20260507224820 61 274 3.0 7.0 0.00 0.00 0.00 43 1014.2
20260507224317 61 271 0.0 8.0 0.00 0.00 0.00 45 1014.2
20260507223830 60 285 5.0 8.0 0.00 0.00 0.00 44 1014.1
20260507223323 61 265 2.0 7.0 0.00 0.00 0.00 42 1014.1
20260507222816 62 268 2.0 5.0 0.00 0.00 0.00 40 1014.2
20260507222349 62 277 1.0 3.0 0.00 0.00 0.00 41 1014.1
20260507221820 63 83 1.0 3.0 0.00 0.00 0.00 37 1014.1
20260507221313 62 316 0.0 7.0 0.00 0.00 0.00 42 1014.1
20260507220826 62 15 0.0 7.0 0.00 0.00 0.00 44 1014.1
20260507220319 62 345 2.0 4.0 0.00 0.00 0.00 40 1014.2
20260507215816 63 284 1.0 4.0 0.00 0.00 0.00 40 1014.3
20260507215329 62 18 0.0 3.0 0.00 0.00 0.00 41 1014.3
20260507214821 63 352 1.0 7.0 0.00 0.00 0.00 44 1014.4
20260507214314 62 274 1.0 9.0 0.00 0.00 0.00 44 1014.4
20260507213827 63 271 3.0 9.0 0.00 0.00 0.00 47 1014.4
20260507213340 62 274 1.0 4.0 0.00 0.00 0.00 42 1014.4
20260507212812 61 304 1.0 6.0 0.00 0.00 0.00 43 1014.5
20260507212325 61 270 3.0 6.0 0.00 0.00 0.00 41 1014.5
20260507211822 61 245 0.0 5.0 0.00 0.00 0.00 45 1014.5
20260507211314 61 285 1.0 7.0 0.00 0.00 0.00 44 1014.5
20260507210827 60 285 1.0 7.0 0.00 0.00 0.00 47 1014.5
20260507210320 60 331 1.0 6.0 0.00 0.00 0.00 46 1014.5
20260507205813 60 284 4.0 6.0 0.00 0.00 0.00 42 1014.5
20260507205326 62 228 0.0 6.0 0.00 0.00 0.00 44 1014.5
20260507204819 62 244 1.0 7.0 0.00 0.00 0.00 51 1014.5
20260507204311 61 310 1.0 9.0 0.00 0.00 0.00 45 1014.6
20260507203828 61 278 2.0 9.0 0.00 0.00 0.00 45 1014.5
20260507203341 62 266 3.0 8.0 0.00 0.00 0.00 47 1014.4
20260507202813 62 242 1.0 5.0 0.00 0.00 0.00 47 1014.4
20260507202346 61 333 0.0 9.0 0.00 0.00 0.00 47 1014.5
20260507201816 62 12 2.0 9.0 0.00 0.00 0.00 45 1014.5
20260507201329 62 335 2.0 7.0 0.00 0.00 0.00 48 1014.6
20260507200822 61 210 1.0 7.0 0.00 0.00 0.00 48 1014.6
20260507200314 61 288 1.0 8.0 0.00 0.00 0.00 49 1014.7
20260507195828 60 358 2.0 9.0 0.00 0.00 0.00 52 1014.7
20260507195324 60 13 2.0 9.0 0.00 0.00 0.00 51 1014.6
20260507194817 60 16 4.0 7.0 0.00 0.00 0.00 46 1014.7
20260507194350 61 4 3.0 10.0 0.00 0.00 0.00 49 1014.6
20260507193821 61 340 2.0 10.0 0.00 0.00 0.00 51 1014.7
20260507193314 60 53 2.0 9.0 0.00 0.00 0.00 47 1014.8
20260507192827 60 168 1.0 9.0 0.00 0.00 0.00 52 1014.9
20260507192341 59 311 5.0 9.0 0.00 0.00 0.00 48 1014.9
20260507191812 59 15 3.0 9.0 0.00 0.00 0.00 49 1014.8
20260507191325 59 254 3.0 8.0 0.00 0.00 0.00 45 1014.8
20260507190822 60 62 3.0 8.0 0.00 0.00 0.00 52 1014.8
20260507190315 59 15 3.0 8.0 0.00 0.00 0.00 52 1014.9
20260507185827 60 338 1.0 6.0 0.00 0.00 0.00 48 1015.0
20260507185320 60 283 1.0 9.0 0.00 0.00 0.00 47 1015.0
20260507184813 60 281 2.0 8.0 0.00 0.00 0.00 52 1015.0
20260507184326 59 358 1.0 8.0 0.00 0.00 0.00 57 1015.0
20260507183819 58 348 2.0 10.0 0.00 0.00 0.00 50 1015.1
20260507183312 58 30 4.0 11.0 0.00 0.00 0.00 44 1015.0
20260507182829 59 26 4.0 10.0 0.00 0.00 0.00 46 1014.9
20260507182322 60 24 3.0 10.0 0.00 0.00 0.00 49 1015.3
20260507181814 60 337 1.0 9.0 0.00 0.00 0.00 56 1015.2
20260507181327 59 358 1.0 9.0 0.00 0.00 0.00 56 1015.2
20260507180820 58 8 1.0 10.0 0.00 0.00 0.00 58 1015.3
20260507180313 58 336 5.0 15.0 0.00 0.00 0.00 50 1015.3
20260507175826 58 359 6.0 15.0 0.00 0.00 0.00 49 1015.2
20260507175318 58 359 3.0 12.0 0.00 0.00 0.00 51 1015.3
20260507174815 58 41 3.0 12.0 0.00 0.00 0.00 54 1015.5
20260507174328 58 290 3.0 8.0 0.00 0.00 0.00 52 1015.4
20260507173821 58 293 3.0 8.0 0.00 0.00 0.00 54 1015.6
20260507173314 58 278 2.0 13.0 0.00 0.00 0.00 54 1015.7
20260507172827 58 148 3.0 13.0 0.00 0.00 0.00 52 1015.6
20260507172319 58 21 5.0 12.0 0.00 0.00 0.00 50 1015.8
20260507171812 58 294 1.0 9.0 0.00 0.00 0.00 56 1015.8
20260507171346 59 342 4.0 9.0 0.00 0.00 0.00 56 1015.9
20260507170821 59 294 1.0 6.0 0.00 0.00 0.00 54 1016.0
20260507170314 58 341 1.0 11.0 0.00 0.00 0.00 53 1015.9
20260507165827 58 266 0.0 7.0 0.00 0.00 0.00 56 1016.0
20260507165320 58 112 2.0 7.0 0.00 0.00 0.00 54 1016.1
20260507164813 58 269 1.0 9.0 0.00 0.00 0.00 57 1016.0
20260507164325 57 288 1.0 9.0 0.00 0.00 0.00 56 1016.1
20260507163818 57 278 3.0 9.0 0.00 0.00 0.00 53 1016.1
20260507163311 58 272 2.0 6.0 0.00 0.00 0.00 56 1016.1
20260507162828 57 6 3.0 6.0 0.00 0.00 0.00 52 1016.2
20260507162321 57 291 1.0 6.0 0.00 0.00 0.00 53 1016.2
20260507161814 57 6 2.0 6.0 0.00 0.00 0.00 50 1016.2
20260507161326 57 89 1.0 12.0 0.00 0.00 0.00 51 1016.2
20260507160818 57 322 2.0 12.0 0.00 0.00 0.00 56 1016.4
20260507160311 57 286 2.0 7.0 0.00 0.00 0.00 54 1016.4
20260507155821 56 270 1.0 7.0 0.00 0.00 0.00 58 1016.3
20260507155314 56 290 1.0 7.0 0.00 0.00 0.00 55 1016.2
20260507154811 57 279 2.0 6.0 0.00 0.00 0.00 49 1016.3
20260507154344 56 263 0.0 5.0 0.00 0.00 0.00 58 1016.2
20260507153816 55 350 1.0 9.0 0.00 0.00 0.00 55 1016.2
20260507153328 55 319 2.0 8.0 0.00 0.00 0.00 58 1016.2
20260507152821 54 253 4.0 9.0 0.00 0.00 0.00 56 1016.2
20260507152314 54 331 4.0 9.0 0.00 0.00 0.00 56 1016.3
20260507151848 55 274 2.0 7.0 0.00 0.00 0.00 57 1016.2
20260507151339 55 172 1.0 6.0 0.00 0.00 0.00 55 1016.3
20260507150811 54 12 1.0 10.0 0.00 0.00 0.00 57 1016.3
20260507150324 54 323 4.0 10.0 0.00 0.00 0.00 54 1016.2
20260507145840 54 37 2.0 9.0 0.00 0.00 0.00 56 1016.2
20260507145313 54 337 4.0 9.0 0.00 0.00 0.00 55 1016.1
20260507144825 54 248 1.0 7.0 0.00 0.00 0.00 54 1016.2
20260507144318 54 338 1.0 8.0 0.00 0.00 0.00 59 1016.2
20260507143811 53 302 2.0 9.0 0.00 0.00 0.00 58 1016.1
20260507143324 54 276 1.0 6.0 0.00 0.00 0.00 60 1016.1
20260507142816 53 274 1.0 6.0 0.00 0.00 0.00 56 1016.1
20260507142329 53 28 1.0 10.0 0.00 0.00 0.00 58 1016.2
20260507141827 53 42 3.0 10.0 0.00 0.00 0.00 58 1016.3
20260507141319 53 246 3.0 9.0 0.00 0.00 0.00 56 1016.2
20260507140812 53 49 2.0 9.0 0.00 0.00 0.00 56 1016.2
20260507140325 53 12 1.0 6.0 0.00 0.00 0.00 57 1016.2
20260507135817 53 278 0.0 4.0 0.00 0.00 0.00 62 1016.2
20260507135330 53 72 1.0 5.0 0.00 0.00 0.00 61 1016.2
20260507134843 52 288 1.0 5.0 0.00 0.00 0.00 64 1016.2
20260507134314 52 19 1.0 7.0 0.00 0.00 0.00 64 1016.2
20260507133811 51 153 0.0 6.0 0.00 0.00 0.00 65 1016.1
20260507133345 51 33 1.0 4.0 0.00 0.00 0.00 62 1016.1
20260507132816 51 268 0.0 4.0 0.00 0.00 0.00 69 1016.1
20260507132329 50 42 0.0 6.0 0.00 0.00 0.00 64 1016.1
20260507131842 51 5 3.0 6.0 0.00 0.00 0.00 64 1016.2
20260507131313 50 8 1.0 6.0 0.00 0.00 0.00 67 1016.1
20260507130847 50 238 1.0 6.0 0.00 0.00 0.00 66 1016.1
20260507130318 51 339 1.0 5.0 0.00 0.00 0.00 66 1016.1
20260507125811 51 281 0.0 0.0 0.00 0.00 0.00 70 1016.2
20260507125324 51 275 0.0 0.0 0.00 0.00 0.00 71 1016.1
20260507124821 51 255 0.0 0.0 0.00 0.00 0.00 70 1016.2
20260507124313 50 319 0.0 0.0 0.00 0.00 0.00 73 1016.1
20260507123847 49 327 0.0 2.0 0.00 0.00 0.00 74 1016.1
20260507123319 49 284 0.0 1.0 0.00 0.00 0.00 75 1016.2
20260507122811 48 266 0.0 2.0 0.00 0.00 0.00 76 1016.2
20260507122324 48 353 0.0 3.0 0.00 0.00 0.00 78 1016.2